FREGAT DEB, 45847

Orbit data source: Space-Track

FREGAT DEB, 45847 is space debris in LEO originally from a launch on Mon, 18 Jul 2011 UTC launched from the Tyuratam Missile And Space Complex (TTMTR). Debris objects in space refer to the collection of defunct objects orbiting the Earth. Examples of debris include non-operational satellites, rocket bodies, and fragments generated from explosions, collisions, or faulty payload assembly.

Loading next visibility...
Identifier
45847, 2011-037CH
Orbit
LEO
Country
Flag of CISCIS
Related business
Manufacturer
Lavochkin
Mission
Spacecraft
Bus & Motor
Unknown
Mass
Unknown
Launch date (UTC)
2011-07-18 (15 years ago)
Launch vehicle
Unknown
Launch site
Tyuratam Missile And Space Complex (TTMTR)
Object type
Payload
Rocket body
Debris
Shape & HBR
Unknown shape, 0.1 m
Radar Cross Section
Small (<0.1 m²)

Expand to show TLE details & history
Last TLE update: 1 day ago

TLE from 1 day ago
0 FREGAT DEB
1 45847U 11037CH  26036.95796674  .00099383  00000-0  64023-2 0  9999
2 45847  51.4020   9.0643 0989326  92.0881 279.3439 13.41570877244368
Epoch: 2026-02-05T22:59Z
TLE epoch observation values (Epoch: 2026-02-05T22:59:28.326Z)
Latitude
0.00002°
Longitude
-111.90645°
Altitude
1,056.493 km
Speed
7.348 km/s
True Right ascension
00h 36m 15s
True Declination
0° 00' 00"
Sunlit
Object was in daylight at epoch
Visualization orbit readout
Latitude
Unknown
Longitude
Unknown
Altitude
Unknown
Speed
Unknown
Apparent Right ascension
Unknown
Apparent Declination
Unknown
Sunlit
N/A
Visualization observer readout
Local Sidereal Time
05:14:00
Azimuth
Unknown
Elevation
Unknown
Doppler factor
Unknown
Orbital elements
Apogee altitude
1,844.16 km
Perigee altitude
363.717 km
Semi-major axis
7,482.075 km
Eccentricity
0.09893
Inclination
51.402°
RAAN
9.0643°
Arg. of periapsis
92.0881°
True anomaly
268.00314°
Mean anomaly
279.3439°
Eccentric anomaly
273.68721°
Mean motion
3.35359 °/min
Orbital period
107.35 mins
BSTAR
0.0064023
Loading maneuver chart data...
Computing Atmospheric mass density...
Loading historical data...
Loading historical data...
Loading historical data...
Loading historical data...
Loading historical data...
Loading historical data...
Loading historical data...

Documentation

Showing up to 5 results
|